Regional Weather Roundup
Issued by NWS

Home | Current Version | Previous Version | Text Only | Print | Product List | Glossary Off
Versions: 1 2 3 4 5 6 7 8 9 10 11 12 13 14 15 16 17 18 19 20 21 22 23 24 25 26 27 28 29 30 31 32 33 34 35 36 37 38 39 40 41 42 43 44 45 46 47 48 49 50

000
ASUS43 KFSD 281702
RWRSD

WEATHER ROUNDUP FOR SOUTH DAKOTA
NATIONAL WEATHER SERVICE SIOUX FALLS SD
1100 AM CST SUN DEC 28 2014

NOTE: "FAIR" INDICATES FEW OR NO CLOUDS BELOW 12,000 FEET WITH NO
SIGNIFICANT WEATHER AND/OR OBSTRUCTIONS TO VISIBILITY.


SDZ001>005-009-010-012>017-281800-
NORTHWEST AND NORTH CENTRAL SOUTH DAKOTA

CITY           SKY/WX    TMP DP  RH WIND       PRES   REMARKS
BUFFALO          N/A     22  14  71 E5        29.90R WCI  16
FAITH            N/A     16  11  80 E3        30.02R
MOBRIDGE       CLOUDY    19  14  81 E12       30.10R WCI   7
$$

SDZ012>016-024>037-041>051-057-063-072>074-281800-
SOUTHWEST AND SOUTH CENTRAL SOUTH DAKOTA

CITY           SKY/WX    TMP DP  RH WIND       PRES   REMARKS
RAPID CTY ARPT CLOUDY    19  13  77 CALM      29.96R
PIERRE         CLOUDY    11   9  92 E6        30.09R WCI   1
CUSTER         CLOUDY    19   7  59 CALM      29.83R
ELLSWORTH AFB  CLOUDY    21   9  59 S1        29.95R
PHILIP         MOSUNNY   11   6  81 CALM      30.04R
PINE RIDGE     CLOUDY    17   8  67 CALM      29.96S
WINNER         FAIR      14   5  67 SE6       30.07R WCI   5
$$

SDZ004>011-016>023-039-040-281800-
NORTHEAST SOUTH DAKOTA

CITY           SKY/WX    TMP DP  RH WIND       PRES   REMARKS
ABERDEEN       FLURRIES  13   8  81 NE15      30.20R WCI  -3
WATERTOWN      CLOUDY    16  13  88 NE13      30.14R WCI   2
SISSETON         N/A      9   5  84 N13       30.22R WCI  -7
$$

SDZ017-020-022-023-036>040-048>070-281800-
SOUTHEAST SOUTH DAKOTA

CITY           SKY/WX    TMP DP  RH WIND       PRES   REMARKS
SIOUX FALLS    MOSUNNY    8   6  92 CALM      30.15R
HURON          SUNNY      9   5  84 N3        30.17R
MITCHELL       SUNNY     14  10  84 NE5       30.16R WCI   6
YANKTON        SUNNY      9   9 100 CALM      30.16S
$$

ABBREVIATIONS USED IN REMARKS
   TC - TEMPERATURE IN CELSIUS
  WCI - WIND CHILL INDEX
   HX - HEAT INDEX
  VSB - VISIBILITY




USA.gov is the U.S. government's official web portal to all federal, state and local government web resources and services.